Wind_Speed
56 55 55 54 53 53 53 53 54 54 54 54 54 54 55 55 55 56 57 58 59 60 61 62 63 63 62 62 61 60 59 58 58 58 58 58 59 60 62 63 62 61 61 61 60 59 57 56 54 52 49 48 49 49 47 44 40 38 35 32 29 26 24 24 27 33 37 39 39 36 32 28 27 31 31 30 31 32 32 31 30 29 28 27 26
56 56 56 55 54 53 53 53 54 56 56 57 58 58 59 59 59 60 60 61 61 62 62 62 61 61 60 60 59 59 58 58 58 59 60 61 62 63 63 62 61 60 60 60 59 57 55 54 52 48 47 47 46 45 42 38 35 34 31 29 26 24 23 25 28 33 39 41 39 37 35 32 31 32 31 31 31 31 31 31 30 30 29 29 28
57 57 57 57 55 54 54 53 53 55 56 58 59 60 60 60 60 60 61 61 61 61 60 60 59 59 59 59 59 59 59 59 59 60 61 62 63 62 62 61 60 60 59 58 57 55 54 51 48 46 45 44 42 40 37 34 32 31 28 26 24 23 24 26 30 33 39 41 38 39 38 35 34 32 30 30 30 30 30 30 30 30 30 30 30
56 57 57 57 56 55 55 54 53 54 54 55 57 58 58 59 59 59 59 59 59 59 58 58 58 58 59 59 59 59 59 59 60 61 61 62 61 61 60 60 59 58 58 57 54 53 51 47 45 43 41 39 37 35 33 32 31 28 25 24 23 24 26 28 31 33 38 40 38 37 35 33 32 31 31 30 29 29 29 28 28 28 28 29 29
54 54 55 55 55 54 54 54 54 53 53 54 54 55 56 57 57 58 58 58 58 58 57 57 58 58 59 59 59 59 59 59 60 60 60 60 60 60 60 59 58 57 56 54 52 50 46 44 43 39 36 36 34 32 31 31 28 25 23 23 24 26 29 31 32 35 39 39 35 32 30 29 29 30 30 29 29 28 27 26 26 25 25 24 24
52 53 53 54 54 53 53 53 53 53 53 53 54 54 55 55 56 56 56 57 56 56 56 56 57 58 58 58 58 58 58 59 59 59 59 59 59 59 59 58 56 54 52 51 48 45 43 42 38 34 34 33 31 31 31 29 26 23 22 23 24 27 30 32 34 38 39 35 31 29 28 27 27 27 27 27 27 26 25 24 23 22 21 21 21
50 51 52 52 53 53 53 53 53 53 53 53 53 54 54 54 55 55 55 55 55 55 55 56 57 57 57 57 57 57 58 58 59 59 58 58 58 58 58 56 54 51 49 47 44 42 41 37 33 33 34 32 30 30 30 28 24 23 23 23 25 28 31 33 36 38 36 32 29 27 26 25 25 25 25 25 25 24 23 22 20 19 19 18 19
47 48 49 50 51 51 52 52 53 53 53 53 54 54 54 54 55 55 55 55 55 55 55 55 56 56 56 56 56 57 57 57 58 58 57 57 56 56 56 54 51 48 45 42 41 39 34 30 31 34 32 30 30 30 29 26 23 22 22 23 25 28 30 33 36 36 33 30 27 25 24 23 23 24 24 24 24 23 21 19 18 17 17 17 17
44 45 45 46 48 49 50 51 51 52 53 53 53 54 54 54 54 54 54 54 54 54 54 55 56 55 55 55 55 55 55 56 57 57 56 56 55 54 53 51 48 45 42 39 36 31 27 29 33 33 31 30 30 30 27 24 22 22 22 23 25 28 30 33 35 33 30 28 25 23 23 23 23 24 24 24 23 22 20 18 17 17 16 16 16
43 44 44 44 44 45 46 48 49 50 51 52 52 52 53 53 53 53 53 53 53 53 54 55 55 55 54 54 54 54 54 54 55 55 54 54 52 50 49 47 45 43 38 32 26 24 26 31 32 31 31 30 30 29 25 23 22 22 22 24 26 29 31 33 34 30 27 26 24 24 24 24 24 25 25 24 24 22 20 19 18 17 16 16 16
43 44 44 44 44 44 44 44 45 47 48 49 50 51 52 52 52 52 53 53 53 53 53 54 54 53 53 53 53 53 53 52 52 52 51 50 48 46 45 44 42 37 28 21 20 24 30 32 30 30 30 31 30 26 23 22 21 21 22 24 27 29 31 33 31 27 27 26 25 24 25 26 26 26 26 25 24 23 21 20 20 19 18 17 17
42 43 43 44 44 44 44 44 44 44 45 46 47 48 49 50 50 51 51 52 52 52 52 52 52 52 52 51 51 50 49 48 47 47 46 45 43 41 40 38 34 25 18 17 21 28 32 32 31 30 30 31 29 24 22 21 21 21 23 25 27 29 31 31 29 27 28 27 25 25 25 26 26 27 26 26 26 24 22 21 20 19 19 19 19
42 42 43 44 44 45 45 45 45 44 44 44 45 45 45 46 47 48 48 49 49 50 50 50 49 49 48 48 48 47 45 43 42 41 41 41 39 35 32 29 24 19 18 21 25 30 34 34 31 30 30 30 27 23 21 20 21 22 23 25 27 29 30 30 28 27 28 27 25 24 24 25 26 26 26 26 26 25 23 20 19 19 19 20 20
42 43 43 43 44 44 45 45 45 45 44 44 44 44 44 44 44 44 44 45 46 46 46 46 45 45 45 44 44 42 40 38 37 37 39 38 33 28 26 24 22 22 23 26 30 32 35 34 30 30 30 29 25 22 21 20 21 22 23 25 27 28 29 30 28 27 28 27 25 23 23 24 25 26 26 25 25 25 24 21 18 18 19 20 21
44 44 44 44 44 44 45 45 45 45 45 44 44 44 43 43 42 42 42 42 43 43 43 42 42 41 40 40 38 36 35 34 34 35 36 33 28 26 26 26 26 28 29 32 33 34 35 33 29 29 30 28 24 22 21 20 21 22 23 24 26 28 29 29 27 26 28 28 25 23 22 23 24 25 26 26 25 25 24 22 18 17 18 19 20
46 46 45 44 44 44 45 45 45 45 45 45 45 44 44 44 43 42 42 42 42 42 41 40 39 37 36 34 32 32 31 31 31 32 32 29 27 28 29 31 33 33 34 35 35 35 34 30 27 28 29 26 22 21 20 20 20 21 22 23 26 28 29 28 26 25 28 28 26 23 23 23 24 25 26 26 26 25 23 22 19 17 17 18 18
47 47 47 46 46 46 46 46 46 46 46 46 45 45 45 45 44 43 43 42 41 40 39 38 36 33 31 29 28 29 29 29 29 29 29 27 27 31 33 35 36 37 37 36 36 35 32 27 26 28 28 24 21 20 19 19 20 21 21 23 26 27 28 27 25 25 28 29 25 23 24 24 25 25 26 27 27 26 24 22 20 17 16 16 16
49 49 48 48 48 48 48 48 47 47 47 46 46 45 45 45 44 43 43 42 41 39 37 35 32 30 27 25 27 29 29 28 29 29 28 27 29 34 37 37 38 39 38 38 37 34 29 25 26 27 27 23 20 19 19 19 19 20 21 22 25 27 27 26 25 24 27 28 25 24 25 26 26 26 26 27 28 28 27 24 21 19 16 15 16
50 50 50 50 50 50 50 50 49 49 49 48 47 46 45 45 44 43 42 42 40 37 34 31 28 26 24 25 28 29 28 28 30 30 31 32 34 37 38 38 39 39 38 37 35 32 26 24 25 27 26 23 20 19 18 19 19 19 20 21 24 26 26 25 25 24 25 27 25 25 27 27 27 27 27 28 28 29 29 27 24 21 18 16 15
51 51 51 51 52 51 51 51 51 50 50 49 48 47 46 44 43 43 42 41 38 34 30 27 25 24 24 27 28 27 28 29 31 33 33 33 35 37 37 37 37 37 36 34 31 28 24 22 25 27 25 23 20 19 19 19 20 19 19 21 23 25 24 24 25 24 23 25 26 26 27 28 28 28 28 28 29 29 30 30 27 23 20 17 16
51 51 52 52 52 52 52 52 51 51 50 49 48 47 45 44 42 41 41 38 34 31 28 26 24 25 26 27 26 28 29 30 32 32 29 28 30 32 33 33 33 33 32 30 29 26 22 22 25 26 24 23 21 19 19 20 20 19 19 20 23 23 22 23 25 25 23 23 25 27 27 28 29 29 28 29 29 30 30 30 29 26 22 19 17
51 52 52 53 53 53 52 52 51 51 50 49 49 46 44 43 41 38 37 35 32 30 29 27 26 27 27 26 27 29 29 29 28 25 22 22 23 25 26 28 28 29 30 31 30 25 21 22 24 25 23 22 21 19 19 19 20 20 18 19 21 21 21 22 24 24 23 23 24 26 27 28 29 30 30 29 30 30 30 30 30 29 24 20 18
51 52 52 53 53 53 53 52 52 51 51 50 48 44 42 42 40 36 33 31 30 30 30 30 28 26 25 26 27 28 28 27 22 18 17 17 17 20 23 25 28 30 32 32 30 25 21 21 23 23 23 22 21 20 19 19 20 19 18 19 19 18 19 21 23 24 23 23 24 25 27 28 29 30 30 30 31 31 31 31 31 31 27 22 19
52 52 52 53 53 52 52 52 52 51 51 49 46 42 40 40 38 33 30 29 30 30 31 29 26 24 25 27 27 28 28 23 17 16 15 14 17 20 23 26 29 32 33 31 28 24 21 20 22 23 22 21 21 21 19 19 19 19 18 18 17 17 18 20 22 23 23 23 24 24 26 27 28 30 31 31 31 31 32 31 31 31 30 24 19
52 52 52 52 52 52 52 52 52 51 50 48 45 42 40 40 37 33 30 30 30 31 31 27 24 25 27 27 26 27 25 19 16 16 14 15 18 20 25 30 32 32 30 27 26 24 21 19 20 22 22 21 21 21 20 20 19 19 18 16 15 16 18 19 22 23 22 22 23 24 25 26 27 29 30 30 31 32 32 32 31 31 31 27 21
52 52 52 52 52 51 51 52 52 51 49 47 45 43 41 41 39 35 32 31 31 31 29 26 25 27 28 27 27 26 23 19 18 16 15 15 17 21 27 31 31 29 26 23 23 23 20 20 20 21 21 20 21 21 21 21 20 20 18 14 13 15 17 19 21 22 22 22 23 24 24 26 27 28 30 30 31 31 32 32 32 31 31 30 24
52 52 52 52 51 51 51 51 51 50 49 46 44 42 41 40 38 35 32 31 32 31 29 28 28 28 29 29 28 27 25 23 20 18 16 16 18 23 26 26 26 25 22 21 22 22 20 20 20 21 20 19 21 22 22 22 22 20 17 13 13 15 17 19 21 22 22 22 22 23 23 25 26 27 29 30 30 31 32 32 33 32 32 31 27
52 52 51 51 51 51 51 51 50 49 47 45 43 41 40 39 36 34 33 33 33 32 31 30 31 31 32 31 31 30 28 27 25 23 20 18 20 21 21 21 23 23 22 21 22 22 21 21 21 21 20 19 21 23 23 23 22 19 16 13 13 15 17 19 21 22 22 22 22 23 23 25 26 26 27 29 30 31 32 32 33 33 32 31 30
52 52 52 51 52 51 51 50 49 48 47 45 43 42 41 39 37 35 35 35 35 34 33 33 34 34 34 34 34 32 30 29 29 28 26 23 21 20 20 21 24 25 25 24 22 22 21 21 20 20 20 20 21 23 24 23 22 19 16 13 13 15 17 19 21 22 22 21 22 23 23 25 26 26 26 27 29 31 32 32 32 33 33 32 31
52 52 52 52 52 52 51 50 48 47 46 45 44 43 43 42 41 40 39 39 39 37 37 37 37 37 36 35 35 34 33 30 30 31 30 28 25 22 24 27 31 31 28 25 23 22 22 21 20 20 21 20 21 23 24 23 22 20 17 14 14 15 17 19 21 23 22 21 22 23 23 24 26 26 25 25 28 30 32 33 33 33 33 32 31
52 52 52 52 53 52 51 50 48 46 45 45 45 45 46 44 43 43 43 42 43 42 41 41 40 39 37 36 35 35 33 30 29 30 29 29 28 27 30 33 33 30 25 24 23 22 22 21 19 19 21 21 21 23 24 23 22 21 18 15 14 15 16 18 20 22 23 22 22 24 23 24 26 26 25 25 26 29 31 33 34 33 33 32 31
52 52 52 53 54 53 52 51 49 47 46 46 46 46 47 48 47 46 45 45 45 45 44 43 41 39 37 35 35 34 32 29 28 28 28 30 31 31 33 33 30 25 21 22 22 22 22 21 19 19 21 21 22 23 24 23 22 21 18 15 15 15 16 18 20 22 23 22 23 24 23 23 25 26 26 26 26 27 30 32 34 34 33 33 31
52 53 53 54 55 55 54 52 50 48 47 47 47 47 48 50 52 52 51 50 49 48 47 46 43 41 38 36 35 34 31 28 28 29 31 32 31 31 31 31 29 23 20 21 22 21 22 21 19 18 20 21 22 24 25 23 21 20 18 16 15 15 16 17 19 21 22 22 23 24 24 23 25 26 27 28 28 27 29 31 33 34 34 33 32
52 53 54 56 56 56 55 54 52 50 49 48 48 48 49 50 53 54 54 54 53 52 51 49 46 44 41 37 35 33 32 30 29 32 34 33 30 30 30 30 27 22 20 21 21 21 22 21 19 18 20 22 23 24 25 24 21 19 18 16 16 16 16 17 19 21 22 22 22 25 25 23 24 26 28 29 29 28 29 31 32 33 34 33 32
53 54 55 56 57 57 56 55 54 52 50 50 49 49 49 50 52 54 55 55 54 53 53 51 48 45 42 39 35 32 31 31 31 32 33 31 30 31 29 27 24 21 20 21 21 22 22 20 18 18 21 22 23 24 24 24 22 21 19 17 16 16 16 17 19 21 22 22 23 25 26 24 24 26 28 30 30 30 29 30 32 33 33 34 33
53 54 55 56 56 56 56 56 55 53 52 51 51 50 50 50 51 53 54 55 55 54 53 51 49 45 41 39 37 33 31 30 30 31 30 28 28 28 25 22 21 20 20 22 23 23 22 19 17 19 21 22 23 22 23 24 23 23 20 17 16 16 16 18 20 22 22 22 24 26 26 25 25 27 28 30 31 31 30 31 32 33 33 34 33
53 54 53 54 54 54 55 56 55 54 53 52 52 51 51 51 51 52 53 54 54 54 53 51 49 46 42 39 36 33 31 29 28 29 29 29 29 26 22 21 20 20 22 24 25 24 21 18 17 19 21 23 22 21 23 25 24 23 20 17 17 16 17 19 21 23 23 22 25 27 27 25 25 27 29 30 31 31 31 32 33 33 33 33 34
47 46 44 43 44 44 46 49 51 53 53 52 52 51 51 50 50 51 51 52 53 53 53 52 50 47 43 40 35 31 31 31 30 29 26 27 27 24 22 22 22 24 24 24 25 24 21 18 18 20 21 23 22 21 24 26 25 23 20 18 17 17 18 21 23 25 24 23 25 27 26 25 25 28 30 30 31 32 32 32 33 34 33 33 33
39 36 34 34 32 32 35 39 42 46 49 51 51 51 50 49 49 50 51 51 52 52 52 51 50 47 44 41 36 33 33 32 31 29 25 25 28 26 24 24 26 26 25 24 25 25 22 20 20 21 22 24 24 23 25 27 26 23 20 18 17 18 20 22 24 26 25 24 26 28 26 25 26 29 30 30 32 33 33 34 34 34 33 32 33
39 36 36 34 28 25 28 31 34 39 43 46 49 49 49 48 48 48 49 50 51 51 51 51 50 48 46 42 38 36 36 34 31 30 29 29 30 29 27 26 27 26 24 25 28 28 25 24 23 22 23 25 24 23 25 26 26 24 21 18 18 20 21 23 25 27 26 24 27 28 27 26 27 29 30 31 32 33 34 34 35 35 33 32 32
44 42 41 39 35 32 30 27 32 39 42 43 45 46 47 47 47 45 44 45 47 47 47 48 49 49 47 43 40 38 38 37 34 33 34 32 28 26 25 25 25 26 27 30 32 30 28 26 24 22 22 24 25 24 25 26 26 24 21 19 20 21 22 24 26 28 26 25 27 28 28 27 27 29 31 31 33 34 35 35 35 35 33 31 31
46 45 43 41 40 39 37 33 35 41 43 43 42 44 45 46 45 44 41 38 36 36 36 40 44 47 47 45 41 36 35 35 34 33 33 31 28 26 25 24 26 28 31 34 33 29 27 25 23 21 21 24 26 25 25 27 26 24 21 21 21 22 23 25 27 28 27 27 28 28 28 28 28 30 31 32 33 34 35 36 36 35 33 31 31
47 44 41 39 38 40 41 39 39 41 44 45 42 41 43 45 44 43 42 38 33 32 30 32 36 41 44 45 43 39 34 31 30 29 29 28 29 29 29 28 28 28 30 32 30 26 25 24 22 20 20 23 25 26 25 26 25 23 22 22 23 24 25 26 28 28 28 28 28 29 29 28 28 30 31 32 34 35 36 36 36 36 33 31 30
48 44 40 38 37 41 44 43 42 42 45 45 42 39 40 42 43 42 42 42 40 38 34 32 33 37 41 42 43 43 41 37 33 32 31 31 32 33 34 35 32 29 28 28 27 25 25 24 22 20 20 23 25 25 25 25 24 23 23 24 25 26 27 27 28 28 28 29 29 30 30 27 28 31 31 32 34 35 35 36 36 36 34 31 30
48 45 40 38 38 41 45 45 44 44 44 44 41 39 37 38 40 41 41 42 44 44 41 39 38 40 40 38 38 40 43 44 40 38 38 36 34 31 33 36 32 29 28 28 29 28 26 24 22 20 20 24 25 26 26 26 26 25 25 26 26 27 28 29 29 29 29 29 30 31 29 27 29 30 31 33 34 34 35 35 36 36 34 32 30
47 44 40 38 37 39 43 44 44 46 47 46 44 41 38 36 37 39 40 41 42 41 40 42 42 41 39 37 36 37 39 42 41 41 42 40 37 33 33 35 33 29 28 31 31 29 28 26 23 20 22 25 27 27 28 28 28 27 27 28 28 29 29 30 30 29 30 31 32 31 27 27 29 30 32 33 34 35 35 35 36 37 34 32 31
46 44 41 37 36 37 40 41 42 43 46 48 47 43 37 35 36 38 40 41 41 40 38 39 41 41 39 36 35 36 36 37 39 42 42 41 38 37 38 38 37 34 33 35 34 32 32 31 25 23 24 26 28 30 30 30 30 29 30 30 30 30 30 31 30 30 31 32 32 29 26 26 28 30 33 34 34 35 35 36 37 37 34 32 31
46 43 40 37 35 36 38 39 40 41 42 44 46 43 38 35 35 36 38 38 37 37 37 37 39 40 39 35 34 37 36 34 36 39 40 39 37 37 38 39 40 40 39 38 37 37 37 34 27 25 25 27 28 30 31 31 29 29 31 31 31 32 32 31 30 31 32 32 32 28 25 26 29 32 34 35 35 35 35 37 38 36 34 32 31
46 43 41 38 36 35 37 38 40 41 40 41 42 42 39 36 34 34 34 34 33 33 33 35 38 39 37 34 33 35 34 31 33 35 37 37 36 35 36 37 38 38 37 36 37 36 34 31 27 25 27 28 29 30 31 30 30 31 31 32 32 33 32 31 31 32 32 32 30 27 25 27 30 33 34 35 35 36 38 39 38 36 33 31 31
46 45 42 41 39 37 36 37 39 40 41 40 40 41 41 38 35 32 28 28 29 29 29 30 33 36 36 33 31 30 28 27 31 33 34 34 34 34 34 35 36 35 34 34 35 34 31 30 29 28 29 30 32 33 33 34 34 32 31 32 33 33 32 32 32 32 32 30 28 26 26 28 31 33 35 36 37 38 40 40 38 35 32 31 31
46 45 44 42 41 39 38 38 39 40 41 41 40 40 42 41 38 31 25 24 25 24 25 26 28 31 34 31 28 26 23 25 30 32 32 31 32 33 33 33 35 36 35 33 33 32 31 32 33 34 34 34 36 36 34 35 34 29 29 31 32 33 33 32 32 33 31 29 27 27 28 28 31 34 36 38 39 41 41 40 37 34 31 31 31
Wind_Direction
273 274 275 275 275 275 274 273 272 272 272 274 275 276 277 278 279 280 282 284 286 288 289 291 292 292 293 294 294 295 296 298 299 300 301 303 303 304 305 305 305 304 304 305 305 306 307 306 307 308 309 310 311 311 311 312 313 314 316 318 319 319 321 326 330 332 333 333 329 326 322 316 312 310 310 309 304 302 301 298 296 293 292 291 288
273 274 275 275 275 275 274 274 273 273 273 274 275 276 277 279 280 282 283 285 286 288 289 290 291 292 293 294 295 296 297 299 300 301 302 303 303 304 304 303 303 303 304 304 305 306 306 307 308 309 310 311 312 313 314 315 316 318 321 321 319 319 323 328 331 333 334 333 329 324 322 319 317 315 312 310 307 305 302 297 294 291 290 289 287
274 275 275 276 275 275 275 275 275 274 274 275 275 276 278 280 281 283 284 286 287 287 288 290 291 293 294 295 296 297 299 300 301 301 302 302 302 302 302 302 303 303 304 304 305 306 307 308 309 310 312 313 315 316 318 319 320 323 324 320 317 319 323 326 328 331 333 332 328 325 324 324 322 319 316 313 310 306 302 299 295 292 289 287 285
274 275 275 276 276 276 277 277 277 276 276 277 277 278 280 281 283 284 285 286 286 287 289 290 292 293 294 296 297 298 300 300 301 301 301 301 301 301 301 301 302 303 304 305 306 307 308 309 310 311 313 316 318 320 322 322 324 326 323 318 317 321 324 326 327 329 330 328 327 327 326 325 323 321 318 315 312 308 305 301 298 294 290 288 286
275 275 276 277 277 278 278 279 279 279 279 279 280 280 281 282 283 284 285 286 287 289 290 292 293 294 295 296 298 299 300 300 300 299 299 300 300 300 300 301 302 303 304 305 307 308 309 309 309 312 316 319 321 323 325 325 327 326 321 317 320 324 328 330 329 330 330 329 329 329 327 324 321 320 318 317 315 312 309 306 302 299 296 293 291
277 277 277 278 279 279 280 280 280 280 280 280 281 281 282 283 284 285 286 288 289 290 292 292 293 294 296 297 298 299 299 298 298 299 299 300 300 300 301 302 303 304 305 306 308 309 309 309 311 316 320 321 322 325 327 327 328 325 319 318 323 328 332 332 332 333 332 332 333 332 328 325 323 323 322 321 320 318 316 313 310 308 305 302 299
280 280 280 280 280 281 281 281 281 282 282 282 282 283 284 285 286 287 288 289 290 291 292 293 293 294 295 297 298 298 297 297 298 299 299 300 300 301 301 302 303 304 306 307 308 309 309 310 317 322 322 322 324 327 328 329 328 323 319 321 327 331 334 334 335 335 334 333 334 333 331 329 329 329 329 328 327 325 322 320 319 318 315 311 305
283 283 283 282 282 282 282 282 282 282 283 283 284 284 285 286 287 288 289 290 291 292 292 292 292 293 295 296 296 296 297 297 298 299 300 300 301 302 302 303 304 305 307 309 309 309 310 316 324 325 324 324 325 327 329 329 326 322 322 326 330 334 336 336 337 336 334 334 336 335 333 332 332 333 334 335 334 331 329 328 328 327 324 319 313
286 286 286 285 285 284 283 283 283 283 283 283 284 284 285 287 288 289 290 290 291 291 291 290 291 292 293 294 294 295 297 298 299 300 300 301 302 303 303 304 305 307 309 309 309 309 314 322 326 325 324 325 326 327 329 328 325 323 325 330 333 336 337 338 339 338 337 338 339 337 335 334 337 340 341 341 340 338 338 338 337 335 332 329 324
286 287 288 288 288 288 286 285 284 283 284 284 284 285 286 287 288 289 289 289 289 289 290 290 290 292 293 293 294 295 296 298 299 300 301 302 303 304 305 306 306 308 309 310 310 314 320 325 326 325 325 326 326 328 330 327 324 325 329 333 337 338 339 340 341 342 343 344 342 340 340 343 345 346 347 347 346 345 346 346 345 344 342 339 336
287 288 289 289 290 290 290 289 288 287 286 286 286 286 287 288 288 289 289 289 289 289 289 290 291 292 293 293 294 295 297 299 301 302 302 303 305 306 307 308 308 309 312 315 317 320 324 328 329 326 327 327 326 328 329 326 325 328 332 336 338 339 341 343 343 345 347 346 345 344 347 350 351 352 352 353 352 351 349 350 352 353 353 352 351
289 289 289 289 289 289 290 291 291 291 290 290 289 289 289 289 288 288 289 289 289 289 290 290 291 292 293 294 294 296 298 301 302 303 303 304 307 310 310 311 312 313 317 320 318 321 326 330 330 328 328 326 325 329 328 325 326 329 333 338 340 341 343 344 343 345 348 348 347 348 352 354 355 356 356 357 357 354 350 350 354 358 0 2 0
289 289 289 289 289 289 290 291 292 293 294 294 293 293 292 291 290 290 289 289 289 289 289 290 291 292 293 294 296 298 300 302 303 304 304 307 311 313 313 313 314 313 311 312 314 321 327 329 329 329 328 325 325 328 326 323 325 328 334 339 341 343 345 344 342 345 350 351 350 351 354 356 357 358 357 359 359 357 353 350 353 360 3 5 5
289 289 289 289 289 290 291 292 293 294 294 295 295 295 294 293 293 292 291 290 290 290 290 291 291 293 294 296 298 300 302 303 305 304 305 309 312 312 311 309 307 307 306 309 312 319 324 326 327 327 326 324 324 326 323 321 323 328 336 340 341 344 346 343 342 347 352 354 354 354 356 358 359 359 359 359 359 359 357 353 354 0 4 6 8
289 289 289 290 291 291 291 291 291 292 292 293 293 294 294 294 294 293 292 291 290 290 291 291 292 294 295 297 299 301 302 304 304 304 306 309 309 307 305 304 304 305 306 309 312 317 321 324 325 324 323 321 322 324 320 319 322 328 336 339 341 344 344 342 343 348 353 356 356 357 359 1 1 1 0 360 360 1 1 358 355 359 4 7 8
289 290 290 291 291 290 290 290 290 290 291 291 292 293 293 294 294 293 292 291 290 290 291 292 293 293 294 297 300 302 304 304 303 303 305 305 302 302 302 302 303 304 306 309 313 317 320 322 322 321 320 318 319 320 317 317 321 328 335 338 339 342 343 342 343 347 353 357 357 360 3 5 5 3 2 1 1 2 3 2 358 357 1 5 8
289 289 290 290 290 290 289 290 290 290 291 291 291 292 292 293 293 293 292 290 289 290 290 291 291 291 292 295 300 303 304 304 304 301 300 299 298 300 301 301 302 303 306 310 315 318 319 320 320 318 316 315 316 315 314 316 320 327 333 336 337 339 341 342 342 346 352 357 360 5 8 8 7 5 3 2 2 4 4 5 2 358 357 1 5
289 289 289 289 289 289 290 290 291 291 291 290 291 291 291 291 292 292 291 289 288 289 289 289 288 288 289 293 300 303 301 301 300 297 294 293 295 297 298 300 302 304 307 312 315 317 318 319 318 315 313 311 311 312 311 313 317 324 330 332 335 338 340 342 342 346 352 359 6 11 13 10 8 6 4 3 3 5 5 6 6 2 357 358 1
289 289 289 289 289 290 290 291 291 291 291 291 290 290 291 290 290 289 288 287 287 288 288 286 286 286 286 293 300 301 301 300 298 294 291 290 294 296 296 298 302 304 308 311 314 317 318 319 316 313 311 309 308 307 307 310 313 319 326 329 333 337 340 342 343 345 352 1 9 12 12 11 9 8 6 5 4 5 5 6 6 5 0 356 358
290 289 289 289 289 289 290 291 291 291 291 292 291 291 290 290 288 286 285 285 286 286 284 283 285 283 285 293 298 299 301 301 300 296 293 294 296 297 296 298 302 305 308 312 316 318 318 317 315 310 307 306 305 303 303 308 309 315 322 327 330 335 339 343 344 344 349 359 7 8 7 8 9 8 7 6 5 5 5 5 5 5 3 358 356
289 289 289 289 289 290 290 291 291 292 292 292 292 290 288 288 287 286 284 283 283 281 279 281 282 281 286 293 297 299 299 301 303 301 300 301 300 299 298 300 303 306 310 314 318 319 316 315 312 307 304 303 303 300 301 305 307 312 319 325 328 332 340 344 344 344 345 351 360 5 5 4 6 7 6 6 6 5 4 4 4 3 2 0 357
288 289 289 289 290 291 291 292 292 292 292 292 291 289 285 286 286 287 286 281 278 275 276 279 279 282 288 294 298 299 298 301 304 304 306 306 305 304 304 304 306 308 312 315 318 317 314 313 310 304 301 301 300 298 298 302 305 309 316 323 326 331 341 345 344 343 344 345 351 359 3 3 3 5 5 5 5 4 3 2 2 2 360 358 357
288 289 289 290 291 292 292 292 292 292 292 291 290 287 283 283 285 287 285 278 274 272 273 276 280 284 288 292 296 297 298 300 303 306 308 311 316 316 312 310 309 310 312 314 317 315 311 310 308 302 299 299 298 296 297 299 302 307 313 319 323 331 341 345 344 343 343 344 347 354 1 2 1 2 4 4 3 2 1 1 0 1 360 357 355
288 289 290 290 291 291 292 292 292 292 291 289 286 285 281 280 282 283 280 277 274 272 273 276 278 281 284 288 293 297 297 296 303 309 309 317 324 320 315 313 312 312 313 316 317 315 311 308 305 300 297 297 295 294 295 296 300 305 310 315 321 332 341 344 344 343 342 343 345 351 358 0 359 0 2 3 2 1 360 360 359 359 0 358 354
288 288 289 289 290 290 291 292 293 292 290 287 283 281 279 276 277 278 277 277 275 274 272 272 275 279 282 285 289 294 295 295 304 308 307 316 321 318 315 314 313 312 313 317 319 317 311 306 303 298 296 296 293 292 293 294 297 301 306 311 321 333 341 344 343 342 341 342 343 348 354 359 358 358 1 2 1 0 359 359 359 358 359 359 355
288 288 288 289 290 291 292 293 293 292 289 286 281 278 277 274 273 274 275 273 273 273 269 268 274 279 280 282 285 286 292 300 302 301 302 311 315 313 315 315 313 311 313 319 322 321 313 305 302 297 294 294 293 289 289 291 293 298 302 308 321 334 339 342 343 341 340 340 341 344 351 356 356 356 359 1 1 360 359 357 357 357 357 359 357
288 289 289 290 291 292 293 294 293 291 289 285 279 274 274 273 271 271 269 268 270 269 264 267 272 275 276 278 280 278 286 297 296 292 294 301 307 311 315 318 316 312 312 320 326 325 315 304 300 296 292 292 291 287 286 287 290 294 296 305 321 332 337 340 343 341 339 339 339 341 347 353 354 354 357 0 1 360 359 357 356 356 356 357 357
289 289 290 290 291 292 293 294 292 290 288 283 276 270 270 271 268 267 265 265 268 265 262 266 269 270 272 274 275 274 280 290 290 287 289 293 300 308 313 316 319 316 311 315 327 330 319 306 299 295 290 288 289 285 283 284 287 291 292 301 317 328 334 338 342 341 338 337 337 339 344 350 351 351 355 360 1 360 358 357 355 355 354 355 356
288 289 290 291 291 292 293 293 291 288 285 281 274 267 265 265 262 261 262 262 263 261 261 263 265 268 271 272 274 274 278 287 288 285 286 288 291 299 302 303 309 312 310 308 319 332 325 310 299 293 287 283 285 282 279 281 284 287 289 297 312 323 331 336 341 341 338 336 335 336 342 348 349 348 352 358 1 0 358 356 355 353 353 353 355
288 289 290 291 291 292 292 291 289 286 282 278 272 265 261 261 258 255 256 257 258 257 259 262 264 268 273 275 276 276 278 286 288 284 283 283 285 291 294 295 298 304 308 305 310 327 329 315 300 291 285 280 281 279 275 277 280 283 287 294 307 318 327 333 339 341 338 335 333 334 339 345 347 346 348 354 360 1 358 355 353 352 351 351 353
288 289 290 291 292 292 292 290 287 283 279 275 271 265 260 258 256 255 254 255 255 257 259 263 266 270 275 278 278 278 280 284 284 280 277 277 284 292 294 295 298 303 306 304 307 320 327 319 304 290 283 278 277 276 272 273 276 279 284 291 302 313 323 331 338 340 339 335 331 331 335 342 344 344 344 346 352 357 358 354 352 350 349 348 350
289 290 291 291 292 292 291 289 286 281 277 273 269 265 261 257 255 254 255 255 255 258 261 264 267 270 274 279 279 279 279 278 275 273 275 278 284 289 293 295 299 303 304 304 306 315 324 322 308 291 281 275 274 274 269 268 273 277 281 287 297 308 320 331 337 339 339 334 331 330 332 338 342 343 342 341 343 349 354 354 350 348 347 346 347
289 290 291 292 292 292 291 288 284 280 276 272 269 265 262 258 257 256 256 257 257 259 262 265 267 269 273 277 279 278 275 273 271 273 279 284 285 287 290 292 297 301 302 301 301 311 322 322 312 292 279 275 274 273 266 263 271 276 278 283 292 304 318 330 335 337 337 334 330 329 329 334 339 342 341 340 339 342 348 351 349 347 346 345 344
289 291 292 293 293 293 291 287 283 280 275 271 268 265 262 259 258 258 258 258 259 260 262 265 268 269 272 274 276 276 272 271 272 274 278 284 287 289 289 290 293 298 300 297 294 308 321 321 313 292 278 275 274 273 265 259 268 275 277 281 289 301 316 327 332 335 335 332 329 328 327 329 336 340 341 340 339 339 342 347 348 346 345 344 342
291 293 294 295 295 293 291 288 284 280 277 273 269 266 264 261 259 258 258 259 260 261 263 265 268 270 272 272 272 273 272 273 275 274 277 282 287 289 288 288 292 297 298 293 291 305 318 317 310 291 277 274 273 272 265 258 264 272 276 279 288 301 313 324 328 331 332 329 328 327 325 326 332 338 340 340 339 338 339 341 345 345 343 342 341
294 296 297 297 296 295 293 290 287 283 279 275 272 269 266 263 262 260 259 259 260 262 263 265 268 270 271 271 270 270 271 274 274 273 276 285 290 288 287 290 293 296 295 291 288 300 313 312 303 288 278 274 270 269 266 260 262 269 273 274 284 299 311 320 325 327 327 327 327 327 324 323 330 336 338 338 337 336 336 337 340 343 342 341 340
298 300 301 300 299 298 295 291 288 285 280 276 273 271 268 266 265 263 262 261 261 262 263 265 267 269 270 270 269 268 267 269 272 273 276 285 290 287 287 290 292 293 294 290 286 295 308 307 298 288 278 272 268 268 267 263 261 266 269 271 282 297 309 316 320 322 322 323 326 326 322 321 327 334 335 335 335 334 334 334 337 340 340 338 338
302 304 302 300 301 301 299 295 291 287 281 277 274 271 270 268 267 265 264 263 263 263 263 265 266 268 268 268 267 264 263 264 270 277 278 280 283 279 278 284 289 292 291 287 284 294 306 304 297 291 279 270 265 266 269 265 261 264 267 271 282 296 306 311 314 317 318 319 323 324 321 319 324 331 333 332 333 333 332 333 335 337 337 336 336
298 294 289 288 292 296 299 299 296 290 283 277 274 272 270 268 267 266 265 264 264 264 264 265 266 267 267 266 264 259 259 262 268 271 270 271 276 275 274 280 288 289 286 285 286 294 302 303 301 293 279 268 262 265 271 267 260 261 266 272 283 295 302 307 310 313 314 316 321 322 320 318 322 328 331 331 331 331 330 331 333 335 335 334 335
289 280 274 272 269 269 278 287 290 289 285 278 273 270 268 267 266 265 265 265 265 265 266 266 267 267 266 265 262 257 255 258 262 264 264 267 271 272 273 280 286 283 280 286 290 291 297 303 302 291 278 270 263 263 269 266 258 259 264 272 284 293 297 302 307 309 310 313 319 320 318 317 321 327 329 330 330 329 328 329 331 332 332 332 333
284 278 274 267 257 249 249 259 271 275 277 276 270 266 265 263 263 263 264 266 267 268 270 270 268 267 265 263 261 257 254 255 258 260 262 262 265 272 279 284 285 282 282 288 289 289 293 299 296 286 275 267 261 259 263 261 255 256 263 273 283 289 293 299 304 306 306 310 316 317 316 316 319 325 327 328 329 328 326 327 328 330 329 329 330
285 284 282 272 260 251 243 245 255 262 267 271 269 265 262 260 260 260 259 263 265 264 268 271 268 266 264 260 257 255 253 254 254 254 255 257 263 275 284 287 285 283 285 287 285 286 289 291 288 280 268 261 259 259 260 257 253 256 265 275 282 287 291 297 302 302 303 309 312 314 314 314 317 323 326 327 327 326 325 325 326 327 327 326 327
288 289 287 275 261 251 249 251 252 257 264 270 272 270 267 264 262 260 258 257 254 248 253 262 265 265 263 258 254 250 247 247 246 246 249 252 261 272 278 283 284 280 281 282 280 280 282 282 280 275 264 257 259 260 256 251 253 262 271 277 282 286 290 295 298 299 302 307 309 312 313 313 316 321 324 324 325 324 323 322 323 324 325 324 324
291 291 287 277 263 252 253 257 255 256 262 268 271 272 271 269 266 263 260 256 251 246 247 253 259 264 265 263 259 251 244 242 241 245 251 253 260 268 272 274 276 274 274 272 270 273 275 275 276 271 259 255 258 258 253 252 258 267 274 279 283 286 289 293 294 296 300 304 307 311 311 310 314 318 321 323 323 322 321 320 320 322 322 321 321
292 293 289 281 269 259 256 256 253 255 259 263 266 267 267 267 265 262 260 257 254 252 251 252 256 262 269 271 268 260 252 246 245 247 251 250 251 258 265 267 267 269 270 264 263 268 268 270 274 267 254 250 253 254 253 257 262 268 275 279 282 284 286 289 291 294 298 302 307 311 309 307 312 316 320 321 321 321 319 317 317 319 320 319 320
293 294 291 285 277 267 261 259 256 254 256 259 263 265 265 263 261 259 256 254 254 254 252 252 253 258 265 270 271 268 259 251 246 244 247 246 244 246 253 260 261 263 267 264 261 260 261 268 270 261 254 250 249 253 255 259 264 270 276 278 279 281 282 285 287 291 296 301 307 309 305 305 310 316 319 319 320 319 317 315 315 318 318 317 319
294 294 292 288 282 272 265 263 262 258 256 257 259 261 261 260 258 256 254 252 251 251 250 250 250 250 253 258 265 266 262 255 247 242 244 244 243 242 244 250 252 255 264 265 259 256 260 266 262 254 256 253 250 253 255 259 264 269 273 274 275 277 280 282 284 288 294 301 307 305 300 304 311 316 318 318 318 317 315 313 315 317 317 317 319
293 293 292 290 285 278 272 269 267 263 258 256 256 256 254 255 256 255 255 254 253 252 249 246 245 244 245 248 255 260 263 259 248 242 242 240 240 240 239 243 246 253 261 262 256 255 259 262 256 250 253 252 249 250 252 256 261 266 269 270 271 274 277 278 281 286 293 301 304 300 298 305 311 315 317 317 316 315 313 313 314 316 316 316 318
293 293 292 291 287 282 276 271 268 264 260 256 254 252 250 250 251 251 254 254 254 254 251 248 244 243 244 245 248 255 259 256 245 237 233 233 235 236 235 238 244 251 254 251 249 251 254 254 248 243 246 248 247 247 250 253 260 267 268 267 269 271 273 275 280 287 293 300 300 297 299 307 311 313 315 314 314 314 313 312 314 315 315 315 317
293 294 294 293 292 288 282 274 268 263 260 257 254 249 246 246 245 246 253 256 254 254 254 253 247 243 244 243 243 248 250 244 237 229 224 225 232 236 236 237 240 243 241 242 245 246 245 244 241 240 239 241 244 248 253 257 264 270 266 263 265 266 269 275 282 288 293 298 298 297 303 308 310 312 313 312 312 313 313 312 313 315 314 313 315
292 293 294 293 294 293 289 283 275 267 261 257 254 250 245 244 240 238 246 251 252 256 258 255 248 241 239 236 235 239 240 235 228 220 216 220 228 234 238 239 239 239 237 239 243 244 243 242 244 247 243 242 247 252 258 263 269 270 262 259 261 265 272 279 285 289 292 294 296 299 304 308 311 312 311 310 310 313 312 311 313 314 312 311 314
Height
10892 10892 10892 10893 10894 10895 10895 10896 10897 10897 10897 10897 10896 10895 10894 10894 10893 10893 10892 10892 10891 10891 10890 10889 10888 10886 10885 10884 10883 10881 10879 10878 10877 10875 10874 10873 10871 10869 10867 10865 10864 10862 10860 10858 10856 10854 10852 10849 10846 10843 10841 10838 10835 10831 10828 10824 10821 10819 10817 10815 10814 10813 10812 10811 10807 10800 10794 10791 10789 10790 10791 10792 10790 10785 10782 10780 10777 10775 10773 10772 10770 10769 10767 10766 10765
10887 10887 10888 10889 10890 10890 10891 10892 10893 10893 10893 10893 10892 10892 10891 10890 10890 10890 10889 10888 10888 10887 10886 10885 10884 10882 10880 10880 10878 10877 10876 10875 10873 10872 10870 10869 10868 10866 10863 10862 10861 10859 10856 10854 10852 10850 10848 10845 10842 10840 10837 10834 10831 10828 10825 10822 10819 10817 10814 10813 10811 10811 10810 10808 10806 10801 10794 10789 10785 10784 10784 10785 10784 10781 10778 10776 10774 10772 10770 10768 10767 10765 10764 10763 10762
10882 10883 10883 10884 10885 10886 10887 10888 10889 10889 10889 10889 10888 10888 10887 10887 10887 10886 10886 10885 10885 10884 10883 10882 10880 10878 10876 10875 10874 10873 10873 10872 10869 10868 10867 10865 10864 10862 10860 10858 10858 10855 10853 10851 10849 10847 10844 10841 10838 10836 10833 10830 10828 10825 10822 10819 10817 10815 10813 10811 10810 10809 10808 10807 10805 10802 10796 10789 10783 10779 10778 10777 10777 10776 10774 10773 10771 10769 10767 10765 10763 10762 10761 10760 10758
10878 10878 10879 10880 10881 10882 10883 10884 10884 10885 10885 10885 10884 10884 10884 10883 10883 10883 10882 10882 10881 10880 10880 10878 10876 10873 10872 10871 10870 10869 10869 10868 10866 10864 10863 10861 10860 10858 10856 10855 10854 10852 10850 10847 10846 10843 10841 10838 10835 10833 10830 10827 10824 10821 10819 10817 10815 10813 10811 10810 10808 10807 10806 10805 10803 10801 10798 10792 10786 10781 10777 10775 10773 10772 10771 10769 10768 10766 10764 10762 10761 10759 10758 10756 10755
10874 10874 10875 10876 10877 10878 10879 10879 10880 10880 10880 10880 10880 10880 10880 10879 10879 10879 10879 10878 10877 10877 10875 10873 10871 10869 10868 10867 10866 10866 10865 10863 10862 10860 10860 10858 10856 10854 10852 10851 10851 10849 10847 10844 10843 10840 10837 10835 10832 10830 10827 10824 10821 10819 10817 10815 10814 10812 10810 10808 10806 10804 10803 10801 10800 10798 10795 10790 10786 10782 10779 10776 10773 10770 10768 10766 10764 10762 10761 10759 10757 10756 10754 10753 10751
10870 10871 10871 10872 10873 10874 10874 10875 10875 10876 10876 10876 10876 10876 10876 10875 10875 10875 10874 10873 10873 10872 10871 10869 10867 10866 10865 10864 10864 10863 10861 10859 10857 10856 10856 10854 10853 10851 10848 10848 10848 10847 10844 10842 10840 10837 10834 10831 10829 10827 10824 10822 10819 10816 10815 10813 10812 10810 10809 10807 10804 10802 10800 10798 10796 10793 10790 10786 10783 10781 10778 10775 10772 10769 10766 10764 10761 10759 10757 10755 10754 10752 10751 10749 10748
10867 10867 10868 10869 10870 10870 10871 10871 10871 10872 10872 10872 10872 10872 10871 10871 10871 10870 10870 10869 10869 10868 10867 10865 10863 10862 10862 10862 10861 10859 10857 10855 10853 10853 10852 10851 10849 10847 10845 10844 10844 10843 10842 10839 10836 10834 10831 10829 10826 10824 10821 10819 10816 10814 10813 10811 10810 10809 10807 10806 10804 10801 10799 10796 10793 10790 10787 10784 10782 10779 10776 10773 10771 10768 10765 10762 10760 10757 10755 10753 10751 10749 10748 10747 10746
10864 10864 10865 10866 10866 10867 10867 10867 10867 10867 10867 10867 10867 10867 10867 10867 10866 10866 10865 10865 10864 10864 10863 10861 10859 10859 10859 10859 10858 10855 10853 10851 10849 10849 10848 10847 10846 10843 10841 10840 10840 10840 10839 10836 10833 10830 10829 10827 10824 10821 10819 10817 10814 10812 10811 10810 10809 10808 10806 10805 10803 10800 10798 10795 10792 10789 10786 10784 10781 10778 10775 10772 10770 10767 10764 10762 10759 10756 10754 10751 10749 10748 10746 10745 10743
10861 10862 10862 10863 10863 10863 10863 10863 10863 10863 10863 10863 10863 10863 10863 10863 10863 10862 10862 10861 10860 10860 10859 10857 10856 10856 10856 10855 10854 10852 10850 10849 10846 10845 10844 10843 10842 10840 10837 10836 10836 10837 10836 10834 10830 10827 10826 10825 10822 10819 10817 10815 10812 10810 10809 10808 10807 10806 10805 10803 10801 10799 10797 10794 10791 10788 10785 10782 10779 10776 10773 10771 10768 10766 10763 10761 10758 10755 10753 10751 10748 10747 10745 10743 10742
10859 10859 10859 10860 10860 10860 10860 10860 10859 10859 10859 10859 10859 10859 10860 10860 10859 10859 10858 10857 10857 10856 10855 10853 10852 10852 10852 10851 10850 10848 10848 10847 10844 10841 10840 10839 10838 10836 10834 10832 10832 10833 10833 10831 10828 10825 10824 10823 10820 10817 10815 10813 10810 10808 10807 10806 10805 10804 10803 10801 10800 10797 10794 10792 10789 10786 10783 10780 10777 10774 10771 10768 10766 10764 10761 10759 10757 10754 10752 10750 10748 10745 10743 10742 10740
10857 10857 10857 10857 10857 10856 10856 10856 10856 10856 10856 10856 10856 10856 10857 10857 10856 10855 10854 10853 10852 10852 10851 10849 10848 10848 10848 10847 10846 10845 10845 10844 10841 10838 10836 10835 10835 10833 10830 10829 10828 10829 10830 10829 10826 10823 10821 10820 10818 10815 10813 10811 10808 10806 10805 10804 10803 10802 10801 10800 10798 10795 10792 10790 10786 10784 10781 10778 10775 10772 10769 10766 10764 10762 10760 10757 10755 10753 10751 10749 10746 10744 10742 10740 10738
10854 10854 10853 10853 10853 10853 10853 10853 10853 10853 10853 10853 10853 10853 10853 10853 10852 10851 10850 10849 10848 10847 10846 10845 10845 10844 10843 10842 10842 10841 10842 10841 10839 10835 10833 10832 10832 10831 10827 10826 10825 10826 10827 10826 10824 10821 10818 10817 10816 10813 10812 10809 10807 10805 10804 10803 10802 10801 10799 10798 10796 10794 10791 10788 10785 10782 10780 10776 10773 10770 10767 10765 10763 10761 10758 10756 10754 10752 10750 10748 10745 10743 10741 10739 10737
10851 10851 10851 10850 10850 10850 10850 10850 10850 10850 10850 10850 10850 10849 10849 10849 10848 10847 10846 10845 10843 10843 10842 10842 10841 10841 10839 10839 10838 10838 10838 10838 10836 10833 10831 10830 10829 10828 10825 10823 10823 10824 10825 10824 10823 10820 10816 10815 10813 10811 10810 10807 10805 10804 10802 10801 10800 10799 10798 10797 10795 10792 10790 10787 10784 10782 10779 10776 10772 10769 10767 10765 10762 10760 10758 10756 10753 10751 10749 10747 10745 10743 10740 10738 10736
10848 10848 10848 10848 10847 10847 10847 10847 10847 10847 10847 10847 10846 10846 10845 10845 10844 10843 10842 10840 10839 10838 10838 10838 10838 10837 10836 10835 10834 10835 10835 10835 10834 10831 10828 10827 10827 10825 10823 10821 10821 10822 10822 10822 10821 10819 10815 10813 10811 10809 10808 10805 10803 10802 10801 10800 10799 10798 10796 10795 10793 10791 10789 10786 10784 10781 10779 10775 10772 10769 10767 10765 10763 10760 10758 10756 10753 10751 10748 10746 10744 10742 10740 10738 10736
10845 10845 10845 10845 10846 10845 10845 10844 10844 10844 10844 10843 10843 10842 10842 10841 10840 10839 10838 10836 10835 10834 10834 10834 10834 10833 10832 10832 10831 10832 10832 10832 10831 10829 10827 10825 10824 10823 10821 10819 10819 10819 10820 10820 10819 10817 10814 10811 10809 10807 10805 10803 10802 10800 10799 10798 10797 10796 10795 10793 10792 10790 10788 10786 10783 10781 10778 10776 10773 10770 10767 10765 10763 10760 10758 10755 10753 10750 10748 10745 10743 10742 10740 10738 10736
10841 10841 10842 10843 10843 10842 10841 10841 10841 10841 10840 10840 10839 10839 10838 10837 10836 10835 10834 10832 10831 10830 10830 10830 10830 10830 10829 10828 10828 10828 10828 10828 10828 10827 10825 10823 10822 10820 10819 10817 10816 10817 10817 10817 10816 10815 10812 10809 10807 10805 10803 10801 10800 10799 10797 10796 10795 10794 10793 10792 10790 10789 10787 10785 10782 10780 10778 10775 10772 10770 10767 10765 10762 10760 10757 10755 10752 10750 10747 10745 10743 10741 10740 10738 10736
10838 10838 10838 10838 10838 10837 10837 10837 10837 10837 10836 10836 10835 10834 10833 10832 10832 10831 10830 10829 10827 10827 10827 10826 10826 10826 10825 10825 10825 10825 10825 10825 10825 10824 10823 10822 10820 10818 10816 10815 10814 10814 10814 10814 10814 10812 10810 10807 10805 10803 10802 10800 10798 10797 10796 10795 10794 10792 10791 10790 10789 10787 10785 10783 10781 10779 10777 10774 10772 10769 10767 10764 10761 10759 10757 10754 10752 10749 10747 10745 10743 10741 10739 10738 10736
10834 10834 10834 10834 10833 10833 10832 10833 10833 10832 10832 10831 10830 10830 10829 10828 10828 10827 10826 10825 10824 10824 10823 10823 10822 10822 10822 10822 10821 10821 10821 10821 10821 10821 10820 10820 10818 10816 10814 10812 10811 10811 10811 10812 10811 10809 10807 10805 10803 10801 10800 10799 10797 10795 10795 10794 10793 10791 10790 10789 10787 10786 10784 10782 10780 10778 10776 10773 10771 10768 10766 10763 10761 10758 10756 10753 10751 10749 10746 10744 10742 10740 10739 10737 10735
10829 10830 10830 10829 10829 10829 10828 10828 10828 10827 10827 10826 10826 10825 10824 10823 10823 10823 10822 10821 10820 10820 10820 10819 10819 10819 10818 10818 10818 10817 10817 10818 10818 10817 10817 10817 10816 10813 10811 10809 10808 10808 10808 10809 10808 10807 10805 10803 10801 10799 10798 10797 10795 10794 10793 10792 10791 10790 10789 10787 10786 10784 10782 10780 10778 10776 10775 10773 10770 10768 10765 10763 10760 10758 10755 10753 10750 10748 10745 10743 10741 10739 10738 10736 10735
10825 10826 10826 10825 10824 10824 10824 10824 10823 10823 10822 10822 10821 10820 10820 10819 10818 10818 10817 10817 10817 10817 10816 10816 10815 10815 10815 10815 10815 10814 10814 10814 10814 10813 10813 10813 10812 10811 10808 10807 10805 10805 10805 10806 10806 10804 10803 10801 10799 10796 10796 10795 10794 10792 10791 10791 10790 10789 10788 10786 10785 10783 10781 10779 10777 10775 10774 10772 10770 10767 10765 10763 10760 10757 10755 10752 10749 10747 10745 10742 10740 10738 10737 10735 10734
10822 10821 10821 10819 10819 10819 10819 10819 10818 10818 10817 10817 10816 10815 10815 10814 10813 10813 10813 10813 10814 10813 10812 10812 10812 10811 10811 10812 10812 10811 10811 10811 10810 10809 10809 10809 10809 10808 10806 10804 10803 10802 10802 10803 10803 10802 10801 10799 10796 10795 10793 10793 10792 10791 10790 10789 10788 10787 10786 10785 10783 10782 10780 10778 10776 10774 10773 10771 10769 10767 10765 10762 10760 10757 10754 10752 10749 10746 10744 10742 10740 10738 10736 10735 10733
10818 10817 10816 10815 10814 10814 10813 10813 10813 10813 10812 10811 10811 10810 10810 10809 10809 10809 10809 10810 10810 10809 10809 10808 10808 10808 10808 10809 10809 10808 10808 10808 10807 10806 10806 10806 10806 10805 10803 10802 10801 10800 10800 10800 10800 10800 10799 10797 10794 10793 10791 10791 10790 10789 10788 10787 10786 10785 10784 10783 10782 10781 10779 10777 10775 10773 10772 10770 10768 10766 10764 10762 10759 10757 10754 10751 10749 10746 10744 10742 10740 10738 10736 10734 10733
10813 10812 10811 10810 10810 10809 10808 10808 10807 10807 10807 10806 10806 10805 10805 10805 10805 10806 10805 10806 10806 10805 10805 10805 10805 10805 10805 10805 10805 10805 10805 10805 10804 10803 10802 10802 10802 10802 10801 10800 10798 10797 10797 10797 10797 10797 10796 10795 10792 10791 10790 10788 10787 10787 10787 10786 10785 10784 10783 10782 10780 10779 10778 10776 10774 10773 10771 10769 10767 10765 10763 10761 10759 10756 10753 10751 10748 10746 10743 10741 10739 10737 10735 10734 10732
10809 10808 10807 10806 10805 10804 10803 10802 10802 10802 10801 10801 10801 10801 10801 10801 10802 10802 10801 10801 10801 10801 10801 10801 10801 10801 10801 10801 10802 10802 10802 10802 10801 10800 10799 10799 10799 10799 10798 10797 10796 10795 10795 10794 10794 10795 10794 10793 10791 10789 10788 10786 10785 10785 10785 10784 10783 10782 10781 10780 10779 10777 10776 10775 10773 10772 10770 10768 10766 10764 10762 10760 10758 10756 10753 10750 10748 10745 10743 10741 10739 10737 10735 10733 10732
10805 10804 10803 10801 10800 10800 10799 10798 10797 10797 10796 10796 10796 10796 10796 10797 10798 10798 10797 10798 10797 10797 10797 10797 10797 10797 10798 10798 10798 10799 10799 10798 10798 10797 10796 10796 10797 10797 10796 10795 10793 10792 10792 10792 10792 10792 10792 10791 10789 10787 10785 10785 10783 10782 10782 10782 10781 10780 10779 10778 10777 10776 10774 10773 10772 10770 10769 10767 10765 10763 10761 10760 10757 10755 10753 10750 10748 10745 10743 10741 10739 10737 10735 10733 10731
10800 10799 10798 10796 10796 10795 10794 10793 10792 10791 10791 10791 10791 10791 10791 10792 10793 10793 10793 10793 10793 10793 10793 10793 10793 10794 10794 10794 10794 10795 10795 10795 10794 10794 10793 10793 10793 10794 10793 10792 10791 10790 10790 10790 10790 10790 10789 10788 10787 10785 10784 10783 10781 10781 10780 10780 10779 10779 10778 10776 10775 10774 10772 10771 10770 10769 10767 10766 10764 10762 10760 10759 10757 10755 10752 10750 10747 10745 10742 10740 10738 10736 10734 10732 10731
10794 10793 10792 10791 10790 10790 10789 10788 10787 10786 10786 10786 10786 10786 10786 10787 10787 10788 10788 10788 10788 10789 10789 10789 10789 10789 10790 10790 10790 10791 10792 10792 10791 10791 10790 10790 10790 10791 10791 10789 10788 10788 10787 10788 10788 10787 10786 10786 10785 10784 10782 10781 10779 10778 10778 10778 10777 10777 10776 10775 10774 10772 10771 10769 10768 10767 10765 10764 10763 10761 10759 10757 10756 10754 10752 10749 10747 10744 10742 10739 10737 10735 10733 10732 10730
10789 10787 10787 10786 10785 10784 10783 10782 10781 10781 10781 10781 10781 10781 10782 10782 10782 10783 10783 10783 10784 10784 10784 10784 10784 10785 10785 10785 10786 10787 10788 10788 10788 10787 10787 10787 10787 10787 10788 10788 10786 10785 10785 10785 10785 10784 10784 10783 10783 10782 10781 10779 10778 10776 10776 10776 10775 10775 10774 10773 10772 10771 10769 10768 10767 10766 10764 10763 10761 10760 10758 10756 10754 10753 10751 10749 10746 10744 10741 10739 10737 10734 10732 10731 10729
10783 10782 10782 10781 10779 10779 10778 10777 10776 10775 10776 10776 10776 10776 10777 10777 10778 10778 10778 10779 10779 10779 10779 10779 10779 10780 10780 10780 10781 10782 10784 10784 10785 10784 10784 10784 10784 10784 10785 10785 10784 10783 10783 10783 10782 10782 10781 10780 10780 10779 10779 10777 10776 10774 10774 10774 10773 10773 10772 10771 10770 10769 10768 10767 10766 10764 10763 10761 10760 10758 10757 10755 10753 10751 10749 10747 10745 10743 10740 10738 10736 10733 10731 10729 10728
10778 10777 10776 10775 10774 10773 10773 10772 10771 10770 10770 10770 10770 10770 10771 10772 10772 10772 10773 10774 10774 10774 10774 10774 10774 10775 10775 10776 10777 10778 10779 10780 10780 10781 10781 10780 10781 10781 10781 10782 10782 10781 10780 10780 10779 10779 10778 10777 10777 10776 10776 10775 10774 10773 10772 10772 10771 10771 10771 10770 10769 10768 10767 10766 10764 10763 10762 10760 10759 10757 10756 10754 10752 10750 10748 10746 10744 10742 10740 10737 10735 10733 10731 10728 10727
10773 10772 10771 10770 10768 10768 10768 10767 10766 10765 10765 10764 10764 10764 10765 10766 10767 10766 10767 10768 10769 10769 10769 10769 10769 10770 10771 10772 10773 10774 10775 10775 10776 10777 10777 10777 10777 10778 10778 10778 10779 10778 10777 10776 10776 10775 10774 10774 10773 10773 10773 10773 10772 10771 10770 10770 10770 10769 10769 10768 10767 10766 10765 10764 10763 10762 10761 10759 10758 10756 10755 10753 10751 10749 10748 10746 10744 10741 10739 10737 10735 10732 10730 10728 10726
10768 10767 10766 10765 10764 10763 10762 10761 10760 10760 10759 10758 10758 10759 10759 10760 10760 10760 10761 10762 10763 10764 10764 10764 10765 10766 10767 10768 10769 10769 10770 10770 10771 10772 10772 10774 10775 10775 10775 10774 10775 10774 10773 10773 10773 10772 10771 10770 10770 10770 10770 10770 10770 10769 10767 10767 10767 10767 10767 10766 10765 10764 10763 10763 10761 10760 10759 10758 10757 10755 10754 10752 10750 10748 10747 10745 10743 10741 10739 10736 10734 10732 10729 10727 10725
10763 10763 10761 10760 10759 10758 10757 10756 10755 10754 10753 10752 10752 10753 10753 10753 10753 10754 10755 10756 10758 10759 10760 10760 10761 10761 10762 10764 10764 10765 10766 10766 10767 10768 10768 10769 10771 10772 10771 10770 10770 10770 10769 10769 10769 10769 10768 10767 10767 10767 10767 10767 10767 10767 10765 10765 10765 10765 10765 10764 10763 10762 10762 10761 10760 10759 10758 10757 10755 10754 10752 10751 10749 10747 10746 10744 10742 10740 10738 10736 10733 10731 10729 10726 10724
10759 10759 10757 10756 10754 10752 10751 10749 10749 10748 10748 10747 10746 10746 10747 10747 10748 10748 10750 10751 10753 10754 10755 10756 10757 10757 10759 10759 10760 10761 10762 10762 10763 10763 10764 10764 10766 10767 10767 10767 10766 10766 10766 10766 10766 10766 10765 10764 10764 10764 10764 10764 10764 10764 10763 10762 10762 10762 10762 10761 10761 10760 10760 10759 10758 10757 10756 10755 10754 10752 10750 10749 10747 10746 10744 10742 10740 10738 10736 10734 10732 10730 10728 10726 10723
10756 10755 10754 10751 10749 10747 10745 10743 10743 10743 10742 10742 10741 10741 10742 10742 10743 10744 10745 10747 10748 10750 10752 10752 10753 10753 10754 10755 10757 10757 10758 10758 10759 10760 10760 10760 10761 10762 10763 10763 10763 10763 10762 10762 10762 10762 10762 10761 10760 10761 10761 10761 10761 10761 10760 10759 10759 10759 10759 10759 10758 10758 10758 10757 10756 10755 10754 10753 10752 10751 10749 10747 10746 10744 10742 10741 10739 10737 10735 10733 10731 10729 10727 10725 10722
10753 10751 10749 10745 10743 10741 10738 10737 10737 10737 10737 10737 10736 10736 10737 10738 10739 10740 10741 10743 10745 10746 10748 10749 10749 10749 10750 10751 10753 10754 10754 10755 10755 10756 10756 10757 10757 10758 10759 10759 10760 10759 10759 10759 10759 10759 10758 10758 10757 10758 10758 10758 10758 10758 10758 10757 10756 10756 10756 10756 10756 10756 10756 10755 10754 10754 10753 10752 10750 10749 10747 10745 10744 10743 10741 10739 10737 10735 10733 10731 10729 10727 10725 10723 10721
10750 10748 10744 10739 10735 10734 10731 10729 10730 10731 10732 10732 10731 10732 10733 10734 10735 10736 10738 10739 10741 10742 10744 10745 10745 10745 10746 10747 10749 10751 10752 10751 10752 10752 10753 10753 10753 10754 10755 10755 10756 10756 10756 10756 10755 10755 10755 10755 10754 10755 10755 10755 10756 10756 10755 10754 10754 10754 10754 10754 10754 10754 10753 10753 10752 10752 10751 10750 10748 10747 10745 10744 10742 10741 10739 10737 10735 10733 10731 10729 10728 10726 10724 10722 10719
10749 10746 10740 10734 10729 10726 10724 10723 10723 10723 10724 10725 10725 10727 10728 10730 10731 10732 10733 10734 10736 10737 10739 10740 10740 10741 10742 10743 10746 10748 10748 10748 10749 10750 10750 10749 10749 10750 10751 10751 10752 10753 10753 10752 10752 10752 10751 10751 10751 10752 10752 10753 10753 10753 10753 10752 10751 10751 10751 10752 10752 10752 10751 10751 10750 10750 10749 10748 10746 10745 10743 10742 10740 10739 10737 10735 10734 10732 10730 10728 10726 10724 10722 10720 10718
10745 10740 10734 10729 10726 10723 10720 10718 10717 10716 10717 10718 10718 10720 10723 10724 10725 10726 10727 10729 10730 10732 10733 10734 10736 10737 10738 10739 10742 10744 10745 10745 10747 10747 10746 10745 10745 10746 10747 10747 10748 10748 10749 10749 10749 10748 10748 10748 10748 10749 10749 10750 10750 10751 10750 10749 10749 10748 10749 10750 10750 10749 10749 10748 10748 10747 10747 10745 10744 10743 10741 10740 10739 10737 10735 10733 10731 10729 10727 10726 10724 10722 10720 10718 10716
10735 10730 10725 10724 10722 10719 10716 10716 10714 10711 10710 10711 10711 10713 10716 10718 10719 10720 10721 10722 10724 10726 10728 10729 10731 10732 10733 10735 10738 10740 10741 10741 10742 10743 10743 10742 10742 10743 10743 10743 10744 10744 10745 10745 10745 10745 10745 10745 10745 10746 10746 10747 10748 10748 10748 10747 10746 10746 10746 10747 10747 10747 10746 10746 10746 10745 10744 10743 10742 10740 10739 10738 10737 10735 10733 10731 10729 10727 10725 10724 10722 10720 10718 10716 10714
10724 10721 10720 10719 10717 10713 10711 10710 10707 10704 10702 10703 10704 10706 10708 10710 10711 10713 10714 10716 10719 10720 10722 10723 10724 10726 10728 10731 10733 10735 10736 10737 10738 10740 10740 10739 10738 10738 10739 10739 10740 10740 10741 10741 10742 10742 10742 10742 10742 10742 10743 10744 10745 10745 10744 10743 10743 10743 10743 10744 10744 10744 10743 10743 10743 10743 10742 10741 10740 10738 10737 10736 10735 10733 10731 10729 10727 10725 10723 10721 10719 10717 10716 10714 10712
10715 10715 10715 10715 10713 10710 10707 10704 10701 10697 10696 10697 10699 10700 10702 10703 10705 10707 10708 10711 10713 10713 10715 10716 10716 10719 10722 10725 10728 10730 10731 10733 10735 10735 10736 10736 10735 10735 10735 10736 10736 10736 10736 10737 10738 10738 10738 10739 10739 10739 10740 10740 10741 10741 10741 10740 10740 10740 10741 10741 10741 10741 10740 10740 10740 10740 10739 10738 10737 10736 10735 10733 10732 10731 10729 10727 10725 10723 10721 10719 10717 10715 10713 10712 10710
10707 10710 10710 10709 10708 10706 10704 10703 10701 10698 10695 10695 10696 10697 10699 10700 10702 10703 10705 10707 10706 10705 10707 10709 10709 10711 10715 10719 10723 10726 10728 10730 10731 10731 10732 10732 10732 10732 10732 10732 10732 10732 10731 10731 10733 10734 10734 10735 10735 10736 10736 10736 10737 10738 10738 10737 10737 10737 10737 10738 10738 10737 10737 10737 10738 10737 10736 10735 10735 10734 10732 10731 10730 10728 10726 10724 10722 10720 10718 10716 10715 10713 10711 10709 10707
10699 10703 10704 10704 10703 10702 10701 10701 10700 10697 10694 10693 10693 10695 10696 10697 10698 10700 10700 10701 10699 10699 10703 10704 10704 10706 10710 10714 10718 10721 10724 10726 10727 10727 10728 10728 10729 10729 10729 10728 10729 10729 10729 10728 10728 10729 10731 10731 10732 10732 10733 10733 10734 10734 10734 10734 10734 10734 10734 10734 10734 10734 10734 10734 10735 10734 10733 10733 10732 10731 10730 10729 10727 10726 10724 10722 10720 10718 10716 10714 10712 10710 10708 10707 10705
10693 10695 10697 10697 10697 10697 10695 10695 10694 10692 10690 10688 10688 10689 10691 10692 10693 10694 10694 10694 10693 10695 10700 10701 10702 10704 10706 10710 10713 10716 10718 10720 10723 10723 10721 10722 10725 10726 10726 10725 10724 10726 10727 10726 10725 10725 10726 10727 10728 10729 10729 10730 10730 10731 10731 10731 10731 10731 10731 10731 10731 10731 10731 10731 10732 10731 10730 10730 10730 10729 10727 10726 10725 10723 10721 10719 10717 10715 10713 10712 10710 10708 10706 10704 10702
10688 10689 10690 10691 10691 10691 10689 10687 10687 10686 10684 10684 10683 10684 10685 10686 10686 10686 10686 10686 10687 10691 10694 10696 10698 10700 10703 10706 10708 10710 10712 10714 10717 10715 10712 10715 10720 10722 10723 10721 10720 10722 10723 10724 10723 10722 10722 10723 10724 10725 10726 10726 10727 10728 10728 10728 10728 10728 10728 10728 10727 10728 10728 10728 10728 10728 10728 10727 10727 10726 10725 10723 10722 10720 10718 10716 10715 10713 10711 10709 10707 10705 10703 10702 10700
10683 10683 10684 10685 10685 10683 10681 10681 10680 10679 10679 10679 10678 10679 10680 10680 10680 10679 10678 10679 10682 10685 10688 10690 10691 10694 10697 10701 10703 10704 10705 10707 10708 10707 10705 10709 10714 10716 10718 10718 10717 10718 10719 10720 10720 10719 10718 10719 10721 10721 10722 10723 10723 10724 10724 10724 10724 10724 10724 10724 10724 10724 10724 10725 10725 10725 10725 10724 10724 10723 10722 10720 10719 10717 10715 10713 10712 10710 10708 10707 10705 10703 10701 10699 10697
10678 10678 10678 10679 10679 10677 10676 10675 10673 10672 10672 10672 10673 10674 10675 10674 10674 10674 10674 10676 10678 10680 10682 10683 10684 10686 10689 10694 10697 10697 10699 10700 10701 10700 10701 10705 10708 10710 10712 10712 10712 10713 10714 10716 10716 10716 10715 10716 10717 10718 10718 10719 10720 10720 10720 10720 10721 10721 10721 10721 10721 10721 10721 10721 10722 10722 10722 10721 10721 10720 10719 10717 10715 10714 10712 10711 10709 10708 10706 10704 10702 10700 10698 10696 10694
10672 10673 10673 10673 10673 10672 10671 10670 10667 10666 10666 10667 10667 10668 10669 10669 10668 10669 10671 10673 10674 10675 10676 10677 10678 10680 10683 10687 10689 10690 10693 10694 10694 10695 10696 10699 10703 10705 10706 10707 10708 10709 10710 10711 10712 10712 10712 10712 10713 10714 10715 10716 10717 10716 10716 10717 10717 10717 10717 10718 10718 10718 10718 10718 10719 10719 10719 10718 10717 10717 10716 10714 10712 10711 10709 10708 10706 10705 10703 10701 10699 10697 10695 10693 10692
10664 10666 10666 10666 10667 10667 10666 10665 10662 10661 10661 10662 10662 10663 10663 10662 10661 10665 10669 10670 10671 10671 10672 10673 10674 10676 10678 10681 10683 10685 10688 10688 10688 10689 10691 10695 10699 10700 10701 10702 10704 10705 10706 10707 10708 10708 10708 10708 10709 10710 10711 10712 10713 10713 10713 10713 10713 10713 10714 10714 10714 10714 10714 10715 10716 10716 10716 10715 10714 10714 10713 10711 10709 10707 10706 10705 10703 10702 10700 10698 10696 10694 10692 10690 10689
10658 10659 10660 10660 10660 10660 10660 10659 10658 10657 10657 10657 10657 10657 10657 10656 10657 10662 10665 10666 10667 10668 10668 10669 10669 10671 10673 10676 10678 10681 10683 10684 10683 10684 10687 10691 10694 10696 10697 10698 10699 10701 10702 10703 10703 10704 10705 10705 10705 10706 10708 10708 10709 10709 10710 10709 10709 10710 10710 10710 10711 10710 10711 10711 10712 10712 10712 10712 10711 10710 10710 10708 10706 10704 10703 10701 10700 10699 10697 10695 10693 10692 10690 10688 10686